SCP
1 1 1 2 2 2 2 2 1 1 1 0 0 1 1 1 1 1 1 0 0 0 1 1 1 1 2 2 2 2 2 2 2 2 2 2 1 1 1 2 2 2 2
1 1 1 1 2 2 2 2 1 1 1 1 0 1 1 1 1 1 1 1 1 1 1 1 1 1 1 2 2 2 1 1 2 2 2 2 2 1 2 2 2 1 1
1 1 1 1 1 2 2 1 1 1 1 1 1 1 1 1 1 1 1 1 1 1 1 1 1 1 1 1 1 1 1 1 1 2 2 2 1 2 2 2 2 1 1
1 1 1 1 1 1 1 1 1 1 1 1 0 0 1 1 1 1 1 1 1 1 1 1 1 1 1 1 1 1 1 1 1 1 1 1 1 1 1 1 1 1 1
1 1 1 1 1 1 1 1 1 1 1 0 0 0 1 1 1 1 1 1 1 1 1 1 1 1 1 1 1 1 1 1 1 1 1 1 1 1 1 1 1 1 1
1 1 1 1 1 1 1 1 0 0 0 0 0 0 1 1 1 1 1 1 1 1 1 1 1 1 1 1 1 1 1 1 1 1 1 1 1 1 1 1 1 1 1
1 1 1 1 1 0 0 0 0 0 0 0 0 0 1 1 1 1 1 1 1 1 1 1 1 1 1 1 1 1 1 1 1 1 0 0 0 0 1 1 1 1 1
1 1 1 1 1 1 0 0 0 0 0 0 0 0 1 1 1 1 1 1 1 1 1 1 1 1 1 1 1 1 1 1 1 0 0 0 0 1 1 1 1 1 1
1 1 1 1 1 1 1 0 1 1 1 1 1 1 1 1 1 1 1 1 1 1 1 1 1 1 1 1 1 1 1 1 1 0 0 0 1 1 1 1 1 1 1
0 0 0 1 1 1 1 1 1 1 1 1 1 1 1 1 1 1 1 1 1 1 1 1 1 1 1 2 2 2 1 1 1 0 0 1 1 1 1 1 1 1 1
1 1 1 1 1 1 1 1 1 1 1 1 1 1 2 1 1 1 1 2 2 2 1 1 1 2 2 2 2 2 1 1 1 0 0 1 1 1 1 1 1 1 0
2 1 1 1 1 1 1 1 1 1 1 1 1 1 1 1 1 1 1 2 2 2 2 2 2 1 1 1 2 1 1 1 1 0 1 1 1 2 2 1 1 1 1
3 2 2 2 1 1 1 1 1 1 1 1 1 1 1 1 1 1 1 2 2 2 2 2 2 1 1 1 1 1 1 1 1 1 1 1 2 2 2 2 1 1 1
4 4 3 3 2 2 1 1 1 1 1 1 1 1 1 1 1 1 2 2 2 2 2 2 2 2 2 2 1 1 1 1 1 1 1 1 2 2 3 2 2 1 1
4 4 4 4 3 3 2 1 1 1 1 1 1 1 1 1 1 1 2 2 2 2 2 2 2 2 2 2 1 1 1 1 1 1 1 1 2 3 3 3 2 2 2
3 3 3 3 3 3 2 2 1 1 1 1 1 1 2 2 2 2 2 2 2 1 1 2 2 2 2 2 1 1 1 1 1 1 1 1 2 2 3 3 3 3 2
2 2 2 2 2 2 2 2 2 2 2 2 2 2 2 2 3 3 3 2 2 1 1 1 2 2 2 2 2 1 2 2 2 2 2 2 2 2 2 3 3 3 3
2 2 2 2 2 2 2 2 2 2 2 2 2 2 2 3 3 3 3 3 2 2 2 2 2 2 2 2 2 2 2 2 2 2 2 2 1 1 2 2 2 2 2
2 2 2 2 2 2 2 2 3 3 2 2 3 3 3 2 2 2 2 2 2 2 2 2 2 2 2 2 1 1 2 2 2 2 2 1 1 1 1 1 1 1 1
2 2 2 2 2 2 2 2 3 3 3 3 3 3 3 2 2 2 2 2 2 2 2 2 2 1 1 2 1 1 1 1 1 1 1 1 1 1 1 1 1 1 1
3 3 2 2 2 2 3 3 3 3 4 4 3 3 3 3 2 2 2 2 2 2 2 2 2 1 1 1 1 1 1 1 1 1 1 1 1 1 1 1 1 1 1
3 2 2 2 2 3 3 3 3 3 3 4 4 4 4 3 2 2 2 2 2 2 2 2 2 1 1 1 1 1 1 1 1 1 1 1 1 1 1 1 1 1 1
2 2 2 2 2 2 2 2 2 2 2 3 4 5 5 4 3 3 3 3 3 3 3 2 2 2 2 2 2 1 1 1 1 1 1 1 1 1 1 1 1 1 2
2 3 3 4 3 3 2 2 2 2 2 2 3 4 4 4 4 4 4 4 4 3 3 3 2 2 2 2 2 2 1 1 1 1 1 1 1 1 1 1 1 1 1
4 5 6 6 6 5 3 3 2 2 2 2 3 3 3 3 4 5 5 5 5 4 3 3 3 3 2 2 2 2 2 2 1 1 1 1 1 1 1 1 1 1 1
6 7 8 9 8 6 4 3 3 2 2 3 4 4 3 3 4 5 5 6 6 5 4 3 3 3 2 2 2 2 2 2 2 2 1 1 1 1 1 1 1 1 1
Wind_Speed
10 11 12 12 13 13 13 14 14 14 14 14 13 14 14 14 14 14 14 14 14 14 14 14 15 15 15 15 15 16 16 16 16 16 16 15 14 13 12 12 12 10 13
11 11 12 12 12 13 13 14 14 14 14 14 14 14 14 14 14 14 13 14 14 14 14 14 14 14 15 15 15 15 14 14 15 15 15 14 13 12 10 10 10 8 12
11 11 12 12 12 13 13 14 14 14 14 14 14 14 14 13 14 14 13 13 13 14 14 14 14 14 15 14 14 13 13 13 13 13 12 9 10 11 11 11 12 12 11
12 12 11 11 12 13 13 13 13 13 13 13 13 14 13 13 13 13 13 13 13 14 14 14 14 14 14 13 12 12 11 11 11 10 7 8 9 12 12 11 11 11 11
13 12 11 12 13 13 13 13 13 13 13 13 13 13 13 13 13 13 13 13 13 13 13 13 14 13 13 12 11 10 9 9 7 7 7 8 8 12 12 10 10 11 11
13 13 12 13 13 12 12 12 12 12 12 12 12 12 12 13 13 13 13 13 13 12 12 12 13 12 11 10 9 8 7 6 5 6 7 8 8 11 11 10 10 10 10
13 13 12 12 12 12 12 11 11 11 11 11 11 12 12 12 12 13 13 13 12 12 11 11 11 11 10 9 8 6 5 3 3 6 7 8 8 11 11 10 10 10 10
13 13 11 11 12 12 11 11 10 10 10 10 10 11 11 11 11 11 12 12 12 11 11 11 10 9 9 8 6 4 3 2 5 8 8 8 10 11 10 10 9 10 9
11 12 10 10 10 12 11 10 10 9 9 9 9 9 10 10 10 10 10 11 11 11 11 11 10 9 8 6 5 3 2 1 2 5 9 7 11 11 10 9 9 9 9
9 9 10 10 9 9 9 10 9 9 8 8 9 9 9 9 9 10 9 10 10 10 10 9 9 8 6 5 4 4 3 2 4 7 6 8 12 11 11 9 9 8 8
8 7 8 8 8 8 9 9 9 8 7 6 6 8 6 5 6 7 9 11 9 8 8 7 7 6 5 4 4 5 4 2 4 6 6 11 12 12 11 10 9 8 8
6 6 7 6 6 6 6 6 4 5 5 4 3 4 3 3 4 7 10 10 8 7 7 6 5 5 4 3 4 6 3 3 4 6 7 13 12 11 10 9 9 8 8
5 6 8 7 5 5 4 4 3 2 3 4 4 3 3 3 3 4 4 5 4 5 4 5 4 2 2 1 1 2 2 2 3 5 8 12 11 11 10 9 8 8 8
6 8 8 7 5 5 4 3 2 2 3 3 3 3 3 2 2 2 1 2 2 2 2 2 1 1 1 0 0 1 1 2 4 5 7 12 11 10 10 9 8 8 7
6 7 8 7 6 4 3 1 3 3 3 4 2 3 3 2 2 2 1 1 1 1 2 2 1 1 1 1 0 1 2 3 5 6 6 10 10 10 9 9 8 8 7
7 8 7 6 5 4 2 1 1 2 2 3 3 3 3 3 2 2 1 1 1 1 1 1 1 1 0 1 2 2 1 2 5 6 6 7 9 9 9 8 8 8 8
7 7 6 5 5 3 2 1 1 2 3 3 3 3 3 3 2 1 1 1 0 1 1 1 1 0 1 1 2 1 1 2 3 5 5 5 6 8 9 9 8 8 8
7 6 4 4 6 3 1 1 1 1 2 2 2 3 2 3 2 1 1 1 1 1 1 1 1 1 1 0 1 1 2 2 2 3 4 4 5 5 7 9 9 8 8
7 6 4 4 5 3 2 1 1 1 1 1 2 2 2 2 2 1 1 1 0 0 0 0 1 1 0 0 1 2 1 1 2 2 2 4 3 4 5 8 10 9 8
7 6 4 4 4 3 2 1 0 1 1 1 2 2 2 1 1 1 1 0 0 1 1 1 1 0 0 1 0 1 1 2 2 2 2 2 3 5 5 6 6 6 8
8 6 5 4 3 2 1 1 1 0 1 1 2 3 3 1 1 1 0 1 0 0 0 0 0 1 0 0 1 1 0 1 2 2 1 1 1 2 3 4 4 3 3
8 6 5 4 4 3 2 1 1 0 0 1 1 2 2 1 0 1 1 0 1 1 0 0 0 0 1 1 1 1 0 0 0 2 2 1 1 1 2 3 3 3 3
9 7 6 5 5 4 3 2 2 1 0 1 2 2 2 1 1 1 1 0 0 0 1 0 0 1 1 1 1 1 1 1 0 0 1 1 2 1 1 2 3 3 3
9 8 6 6 5 4 3 2 3 2 1 1 1 2 2 1 1 2 1 1 1 0 0 1 1 1 1 1 1 1 2 2 1 0 0 1 1 2 1 1 2 3 3
9 9 8 7 6 4 3 2 2 1 1 1 1 2 1 1 2 2 2 1 1 0 0 1 1 1 1 2 1 1 1 1 2 2 1 1 0 1 1 1 1 2 3
9 8 9 8 6 5 4 3 2 1 1 0 1 1 1 1 1 2 2 2 1 1 1 1 1 1 1 2 2 2 1 1 1 1 2 2 1 1 1 1 1 2 2
Wind_Direction
75 78 73 70 71 73 74 76 80 84 84 83 87 90 88 89 90 90 93 97 104 106 108 110 110 109 108 109 111 111 112 112 114 117 118 117 117 117 119 119 119 113 114
85 85 78 73 74 77 77 79 83 84 83 83 85 88 88 90 92 93 95 97 101 104 108 110 111 112 110 112 113 115 117 119 122 124 123 120 118 117 117 114 111 115 120
89 89 81 73 75 79 82 83 84 86 85 84 84 86 86 90 93 95 98 100 102 104 105 109 112 112 112 113 116 120 123 126 129 131 133 123 117 115 112 111 115 120 120
90 85 82 80 81 83 84 84 84 85 86 86 86 86 86 90 94 96 98 100 103 106 105 108 109 110 111 112 115 121 126 130 134 138 129 118 117 115 112 114 121 125 123
90 88 87 86 86 85 85 86 85 84 84 87 89 89 88 88 92 94 97 100 101 103 105 106 107 108 110 112 116 121 126 132 140 137 112 107 107 119 118 120 124 126 126
94 92 91 89 89 89 87 85 84 83 83 86 90 93 92 91 91 94 98 100 101 103 104 106 107 109 111 115 119 121 126 132 138 121 111 109 111 122 123 122 124 127 127
98 99 99 94 94 96 93 89 86 85 85 89 94 96 97 95 93 96 100 101 101 103 106 107 108 112 116 120 123 125 127 138 146 112 106 105 115 124 125 125 121 122 126
100 104 109 106 105 106 102 97 93 90 90 93 98 101 104 103 100 100 100 102 102 105 106 111 117 123 122 124 128 131 150 211 125 120 111 110 121 125 126 127 125 126 130
99 110 117 119 120 118 111 108 103 100 98 101 110 113 115 114 112 109 106 104 102 102 105 107 111 120 129 133 141 158 193 236 129 121 121 120 130 131 130 129 129 130 134
93 100 113 119 126 129 122 120 117 117 116 112 120 126 127 128 127 125 118 112 107 106 109 113 115 119 126 147 167 192 219 254 149 118 116 128 136 137 136 137 136 139 139
83 88 102 111 127 128 127 129 137 131 131 135 136 144 145 138 131 133 118 121 117 115 116 121 129 136 147 165 196 214 223 224 121 111 114 133 140 141 142 144 144 147 146
95 95 93 94 102 109 111 127 140 131 130 131 108 116 131 118 116 115 123 130 131 132 131 142 151 159 182 179 196 214 224 165 122 116 126 138 142 144 147 149 152 153 154
102 95 89 80 64 81 95 112 104 109 115 116 111 106 104 99 108 115 129 136 143 151 157 157 171 187 188 182 169 189 187 126 111 111 132 140 144 148 152 155 158 159 159
99 91 93 93 75 62 67 81 104 109 109 106 102 96 91 87 93 100 112 127 143 148 156 153 138 141 141 70 141 151 108 101 107 111 134 142 147 153 158 162 164 165 168
98 92 84 83 82 75 64 36 81 87 99 100 95 92 92 88 79 71 70 87 119 122 135 121 110 123 143 142 134 60 68 87 106 116 128 145 149 156 161 167 169 173 175
110 101 96 92 86 79 83 76 74 98 108 109 111 100 99 103 97 93 85 61 89 101 110 115 115 129 97 74 59 43 54 85 110 123 133 147 154 159 165 170 173 176 177
112 106 108 116 104 97 99 158 130 121 121 116 112 107 109 109 108 109 118 118 83 104 112 112 117 124 129 105 97 74 73 80 112 126 141 152 162 173 177 177 176 180 186
114 113 121 121 117 111 80 21 15 71 85 96 110 111 108 103 108 99 98 101 93 106 141 146 153 121 88 100 120 116 96 109 120 145 152 158 159 170 183 187 183 186 192
117 118 118 103 117 121 120 122 99 81 80 117 110 115 111 100 101 102 71 72 330 100 99 68 91 87 86 120 133 134 138 129 144 156 143 151 163 166 167 183 187 190 194
132 132 131 122 123 135 145 132 105 121 142 131 111 115 118 120 106 88 143 155 296 48 50 64 49 42 255 234 199 115 140 153 141 142 159 156 171 176 173 167 178 196 198
141 140 142 143 136 136 157 142 142 134 128 109 116 112 105 95 79 83 70 83 101 104 95 96 242 255 242 189 96 51 350 170 154 163 152 137 147 128 133 141 155 162 174
146 146 146 150 150 159 153 150 170 166 108 128 98 107 118 123 152 177 129 213 101 124 65 297 51 314 268 167 138 144 335 344 269 146 138 134 119 112 122 137 135 146 151
159 160 165 160 156 172 168 173 166 143 26 81 114 125 130 136 150 52 77 315 312 210 169 218 219 212 264 285 170 151 183 192 230 47 96 110 114 101 90 98 117 131 142
165 164 156 152 153 163 175 190 180 167 163 148 139 139 147 172 168 148 183 208 248 293 92 239 173 234 244 281 267 190 193 168 170 138 5 67 109 108 94 102 98 110 113
170 164 157 150 154 160 173 188 190 175 178 151 131 116 152 172 179 178 171 192 198 240 256 294 35 275 258 261 275 251 216 206 191 177 196 184 86 82 92 96 102 101 109
170 165 160 154 158 163 172 179 174 204 210 134 127 144 203 186 197 191 164 174 176 203 210 204 256 255 270 293 313 311 286 220 188 197 202 198 180 163 122 133 132 127 124